This is the latest recevied weather packets stored in our database for station/object W2JBO-5. If no packets are shown the sender has not sent any weather packets the latest 10 day(s).
| Time | Temp. | Humidity | Pressure | Rain* | Wind** | Luminosity | Snow |
|---|---|---|---|---|---|---|---|
| 1777725606 | 12.78° C | 99% | 1016.1 hPa | 0 mm | - | 80 W/m² | - |
| 1777725303 | 12.78° C | 99% | 1015.8 hPa | 0 mm | - | 64 W/m² | - |
| 1777725000 | 12.78° C | 99% | 1015.8 hPa | 0 mm | - | 66 W/m² | - |
| 1777724696 | 12.78° C | 99% | 1015.8 hPa | 0 mm | - | 59 W/m² | - |
| 1777724394 | 12.78° C | 99% | 1015.8 hPa | 0 mm | - | 48 W/m² | - |
| 1777724091 | 12.22° C | 99% | 1014.9 hPa | 0 mm | - | 41 W/m² | - |
| 1777723789 | 12.22° C | 99% | 1014.9 hPa | 0 mm | - | 37 W/m² | - |
| 1777723485 | 12.22° C | 99% | 1014.9 hPa | 0 mm | - | 32 W/m² | - |
| 1777723182 | 12.22° C | 99% | 1014.9 hPa | 0 mm | - | 26 W/m² | - |
| 1777722879 | 12.22° C | 99% | 1014.9 hPa | 0 mm | - | 18 W/m² | - |
| 1777722575 | 11.67° C | 99% | 1014.9 hPa | 0 mm | - | 8 W/m² | - |
| 1777722272 | 11.67° C | 99% | 1014.9 hPa | 0 mm | - | 5 W/m² | - |
| 1777721969 | 11.67° C | 99% | 1014.9 hPa | 0 mm | - | 6 W/m² | - |
| 1777721667 | 11.67° C | 99% | 1014.7 hPa | 0 mm | - | 5 W/m² | - |
| 1777721365 | 11.67° C | 99% | 1014.7 hPa | 0 mm | - | 3 W/m² | - |
| 1777721062 | 11.67° C | 99% | 1014.9 hPa | 0 mm | - | 1 W/m² | - |
| 1777720760 | 11.67° C | 99% | 1014.7 hPa | 0 mm | - | 0 W/m² | - |
| 1777720457 | 11.67° C | 99% | 1014.7 hPa | 0 mm | - | 0 W/m² | - |
| 1777720154 | 11.67° C | 99% | 1014.5 hPa | 0 mm | - | 0 W/m² | - |
| 1777719852 | 11.67° C | 99% | 1014.6 hPa | 0 mm | - | 0 W/m² | - |
| 1777719549 | 11.67° C | 99% | 1014.5 hPa | 0 mm | - | 0 W/m² | - |
| 1777719246 | 11.67° C | 99% | 1014.7 hPa | 0 mm | - | 0 W/m² | - |
| 1777718944 | 11.67° C | 99% | 1014.7 hPa | 0 mm | - | 0 W/m² | - |
| 1777718641 | 11.67° C | 99% | 1014.5 hPa | 0 mm | - | 0 W/m² | - |
| 1777718338 | 11.67° C | 99% | 1014.5 hPa | 0 mm | - | 0 W/m² | - |
* Rain latest hour (hover to see other rain measurements)
** Current wind speed in m/s (hover to see current wind gust speed)